owner,sensor,date,latitude,longitude,vertical_datum,wind_speed,wind_to_direction,wind_speed_of_gust,qcFlag 
WAVCIS,ioos:station:WAVCIS:CSI03:3,2013-10-01T00:00:00Z,29.4412,-92.0613,10.0,5.289,179.0,,'11111222,11111222,99999999' 
WAVCIS,ioos:station:WAVCIS:CSI03:3,2013-10-01T01:00:00Z,29.4412,-92.0613,10.0,5.615,172.0,,'11111222,11111222,99999999' 
WAVCIS,ioos:station:WAVCIS:CSI03:3,2013-10-01T02:00:00Z,29.4412,-92.0613,10.0,5.47,157.0,,'11111222,11111222,99999999' 
WAVCIS,ioos:station:WAVCIS:CSI03:3,2013-10-01T03:00:00Z,29.4412,-92.0613,10.0,4.413,150.0,,'11111222,11111222,99999999' 
WAVCIS,ioos:station:WAVCIS:CSI03:3,2013-10-01T04:00:00Z,29.4412,-92.0613,10.0,4.405,153.0,,'11111222,11111222,99999999' 
WAVCIS,ioos:station:WAVCIS:CSI03:3,2013-10-01T05:00:00Z,29.4412,-92.0613,10.0,5.309,165.0,,'11111222,11111222,99999999' 
WAVCIS,ioos:station:WAVCIS:CSI03:3,2013-10-01T06:00:00Z,29.4412,-92.0613,10.0,5.358,160.0,,'11111222,11111222,99999999' 
WAVCIS,ioos:station:WAVCIS:CSI03:3,2013-10-01T07:00:00Z,29.4412,-92.0613,10.0,5.269,174.0,,'11111222,11111222,99999999' 
WAVCIS,ioos:station:WAVCIS:CSI03:3,2013-10-01T08:00:00Z,29.4412,-92.0613,10.0,7.45,170.0,,'11111222,11111222,99999999' 
WAVCIS,ioos:station:WAVCIS:CSI03:3,2013-10-01T09:00:00Z,29.4412,-92.0613,10.0,5.965,176.0,,'11111222,11111222,99999999' 
WAVCIS,ioos:station:WAVCIS:CSI03:3,2013-10-01T10:00:00Z,29.4412,-92.0613,10.0,6.516,177.0,,'11111222,11111222,99999999' 
WAVCIS,ioos:station:WAVCIS:CSI03:3,2013-10-01T11:00:00Z,29.4412,-92.0613,10.0,3.537,233.0,,'11111222,11111222,99999999' 
WAVCIS,ioos:station:WAVCIS:CSI03:3,2013-10-01T12:00:00Z,29.4412,-92.0613,10.0,4.264,93.0,,'11111222,11111222,99999999' 
WAVCIS,ioos:station:WAVCIS:CSI03:3,2013-10-01T13:00:00Z,29.4412,-92.0613,10.0,5.844,158.0,,'11111222,11111222,99999999' 
WAVCIS,ioos:station:WAVCIS:CSI03:3,2013-10-01T14:00:00Z,29.4412,-92.0613,10.0,6.269,150.0,,'11111222,11111222,99999999' 
WAVCIS,ioos:station:WAVCIS:CSI03:3,2013-10-01T15:00:00Z,29.4412,-92.0613,10.0,4.18,150.0,,'11111222,11111222,99999999' 
WAVCIS,ioos:station:WAVCIS:CSI03:3,2013-10-01T16:00:00Z,29.4412,-92.0613,10.0,4.71,122.0,,'11111222,11111222,99999999' 
WAVCIS,ioos:station:WAVCIS:CSI03:3,2013-10-01T17:00:00Z,29.4412,-92.0613,10.0,4.94,163.0,,'11111222,11111222,99999999' 
WAVCIS,ioos:station:WAVCIS:CSI03:3,2013-10-01T18:00:00Z,29.4412,-92.0613,10.0,6.703,113.0,,'11111222,11111222,99999999' 
WAVCIS,ioos:station:WAVCIS:CSI03:3,2013-10-01T19:00:00Z,29.4412,-92.0613,10.0,3.213,186.0,,'11111222,11111222,99999999' 
WAVCIS,ioos:station:WAVCIS:CSI03:3,2013-10-01T20:00:00Z,29.4412,-92.0613,10.0,3.073,176.0,,'11111222,11111222,99999999' 
WAVCIS,ioos:station:WAVCIS:CSI03:3,2013-10-01T21:00:00Z,29.4412,-92.0613,10.0,2.597,109.0,,'11111222,11111222,99999999' 
WAVCIS,ioos:station:WAVCIS:CSI03:3,2013-10-01T22:00:00Z,29.4412,-92.0613,10.0,3.181,92.0,,'11111222,11111222,99999999' 
WAVCIS,ioos:station:WAVCIS:CSI03:3,2013-10-01T23:00:00Z,29.4412,-92.0613,10.0,4.817,112.0,,'11111222,11111222,99999999' 
WAVCIS,ioos:station:WAVCIS:CSI03:3,2013-10-02T00:00:00Z,29.4412,-92.0613,10.0,5.8,110.0,,'11111222,11111222,99999999' 
WAVCIS,ioos:station:WAVCIS:CSI03:3,2013-10-02T01:00:00Z,29.4412,-92.0613,10.0,5.928,128.0,,'11111222,11111222,99999999' 
WAVCIS,ioos:station:WAVCIS:CSI03:3,2013-10-02T02:00:00Z,29.4412,-92.0613,10.0,7.01,125.0,,'11111222,11111222,99999999' 
WAVCIS,ioos:station:WAVCIS:CSI03:3,2013-10-02T03:00:00Z,29.4412,-92.0613,10.0,8.07,119.0,,'11111222,11111222,99999999' 
WAVCIS,ioos:station:WAVCIS:CSI03:3,2013-10-02T04:00:00Z,29.4412,-92.0613,10.0,7.35,114.0,,'11111222,11111222,99999999' 
WAVCIS,ioos:station:WAVCIS:CSI03:3,2013-10-02T05:00:00Z,29.4412,-92.0613,10.0,6.903,105.0,,'11111222,11111222,99999999' 
WAVCIS,ioos:station:WAVCIS:CSI03:3,2013-10-02T06:00:00Z,29.4412,-92.0613,10.0,6.85,101.0,,'11111222,11111222,99999999' 
WAVCIS,ioos:station:WAVCIS:CSI03:3,2013-10-02T07:00:00Z,29.4412,-92.0613,10.0,6.405,99.0,,'11111222,11111222,99999999' 
WAVCIS,ioos:station:WAVCIS:CSI03:3,2013-10-02T08:00:00Z,29.4412,-92.0613,10.0,7.62,97.0,,'11111222,11111222,99999999' 
WAVCIS,ioos:station:WAVCIS:CSI03:3,2013-10-02T09:00:00Z,29.4412,-92.0613,10.0,7.69,122.0,,'11111222,11111222,99999999' 
WAVCIS,ioos:station:WAVCIS:CSI03:3,2013-10-02T10:00:00Z,29.4412,-92.0613,10.0,9.05,117.0,,'11111222,11111222,99999999' 
WAVCIS,ioos:station:WAVCIS:CSI03:3,2013-10-02T11:00:00Z,29.4412,-92.0613,10.0,8.89,120.0,,'11111222,11111222,99999999' 
WAVCIS,ioos:station:WAVCIS:CSI03:3,2013-10-02T12:00:00Z,29.4412,-92.0613,10.0,8.67,137.0,,'11111222,11111222,99999999' 
WAVCIS,ioos:station:WAVCIS:CSI03:3,2013-10-02T13:00:00Z,29.4412,-92.0613,10.0,8.54,137.0,,'11111222,11111222,99999999' 
WAVCIS,ioos:station:WAVCIS:CSI03:3,2013-10-02T14:00:00Z,29.4412,-92.0613,10.0,8.37,122.0,,'11111222,11111222,99999999' 
WAVCIS,ioos:station:WAVCIS:CSI03:3,2013-10-02T15:00:00Z,29.4412,-92.0613,10.0,7.19,124.0,,'11111222,11111222,99999999' 
WAVCIS,ioos:station:WAVCIS:CSI03:3,2013-10-02T16:00:00Z,29.4412,-92.0613,10.0,5.82,128.0,,'11111222,11111222,99999999' 
WAVCIS,ioos:station:WAVCIS:CSI03:3,2013-10-02T17:00:00Z,29.4412,-92.0613,10.0,6.592,116.0,,'11111222,11111222,99999999' 
WAVCIS,ioos:station:WAVCIS:CSI03:3,2013-10-02T18:00:00Z,29.4412,-92.0613,10.0,6.385,103.0,,'11111222,11111222,99999999' 
WAVCIS,ioos:station:WAVCIS:CSI03:3,2013-10-02T19:00:00Z,29.4412,-92.0613,10.0,6.447,107.0,,'11111222,11111222,99999999' 
WAVCIS,ioos:station:WAVCIS:CSI03:3,2013-10-02T20:00:00Z,29.4412,-92.0613,10.0,5.035,109.0,,'11111222,11111222,99999999' 
WAVCIS,ioos:station:WAVCIS:CSI03:3,2013-10-02T21:00:00Z,29.4412,-92.0613,10.0,5.187,123.0,,'11111222,11111222,99999999' 
WAVCIS,ioos:station:WAVCIS:CSI03:3,2013-10-02T22:00:00Z,29.4412,-92.0613,10.0,4.813,127.0,,'11111222,11111222,99999999' 
WAVCIS,ioos:station:WAVCIS:CSI03:3,2013-10-02T23:00:00Z,29.4412,-92.0613,10.0,5.74,128.0,,'11111222,11111222,99999999' 
WAVCIS,ioos:station:WAVCIS:CSI03:3,2013-10-03T00:00:00Z,29.4412,-92.0613,10.0,6.397,127.0,,'11111222,11111222,99999999' 
WAVCIS,ioos:station:WAVCIS:CSI03:3,2013-10-03T01:00:00Z,29.4412,-92.0613,10.0,6.225,135.0,,'11111222,11111222,99999999' 
WAVCIS,ioos:station:WAVCIS:CSI03:3,2013-10-03T02:00:00Z,29.4412,-92.0613,10.0,6.219,135.0,,'11111222,11111222,99999999' 
WAVCIS,ioos:station:WAVCIS:CSI03:3,2013-10-03T03:00:00Z,29.4412,-92.0613,10.0,7.07,124.0,,'11111222,11111222,99999999' 
WAVCIS,ioos:station:WAVCIS:CSI03:3,2013-10-03T04:00:00Z,29.4412,-92.0613,10.0,7.38,130.0,,'11111222,11111222,99999999' 
WAVCIS,ioos:station:WAVCIS:CSI03:3,2013-10-03T05:00:00Z,29.4412,-92.0613,10.0,6.683,125.0,,'11111222,11111222,99999999' 
WAVCIS,ioos:station:WAVCIS:CSI03:3,2013-10-03T06:00:00Z,29.4412,-92.0613,10.0,6.957,118.0,,'11111222,11111222,99999999' 
WAVCIS,ioos:station:WAVCIS:CSI03:3,2013-10-03T07:00:00Z,29.4412,-92.0613,10.0,7.27,128.0,,'11111222,11111222,99999999' 
WAVCIS,ioos:station:WAVCIS:CSI03:3,2013-10-03T08:00:00Z,29.4412,-92.0613,10.0,6.993,130.0,,'11111222,11111222,99999999' 
WAVCIS,ioos:station:WAVCIS:CSI03:3,2013-10-03T09:00:00Z,29.4412,-92.0613,10.0,6.132,138.0,,'11111222,11111222,99999999' 
WAVCIS,ioos:station:WAVCIS:CSI03:3,2013-10-03T10:00:00Z,29.4412,-92.0613,10.0,5.3,143.0,,'11111222,11111222,99999999' 
WAVCIS,ioos:station:WAVCIS:CSI03:3,2013-10-03T11:00:00Z,29.4412,-92.0613,10.0,4.97,146.0,,'11111222,11111222,99999999' 
WAVCIS,ioos:station:WAVCIS:CSI03:3,2013-10-03T12:00:00Z,29.4412,-92.0613,10.0,4.671,140.0,,'11111222,11111222,99999999' 
WAVCIS,ioos:station:WAVCIS:CSI03:3,2013-10-03T13:00:00Z,29.4412,-92.0613,10.0,4.086,141.0,,'11111222,11111222,99999999' 
WAVCIS,ioos:station:WAVCIS:CSI03:3,2013-10-03T14:00:00Z,29.4412,-92.0613,10.0,3.798,124.0,,'11111222,11111222,99999999' 
WAVCIS,ioos:station:WAVCIS:CSI03:3,2013-10-03T15:00:00Z,29.4412,-92.0613,10.0,4.801,99.0,,'11111222,11111222,99999999' 
WAVCIS,ioos:station:WAVCIS:CSI03:3,2013-10-03T16:00:00Z,29.4412,-92.0613,10.0,5.808,121.0,,'11111222,11111222,99999999' 
WAVCIS,ioos:station:WAVCIS:CSI03:3,2013-10-03T17:00:00Z,29.4412,-92.0613,10.0,5.309,121.0,,'11111222,11111222,99999999' 
WAVCIS,ioos:station:WAVCIS:CSI03:3,2013-10-03T18:00:00Z,29.4412,-92.0613,10.0,5.017,121.0,,'11111222,11111222,99999999' 
WAVCIS,ioos:station:WAVCIS:CSI03:3,2013-10-03T19:00:00Z,29.4412,-92.0613,10.0,4.216,126.0,,'11111222,11111222,99999999' 
WAVCIS,ioos:station:WAVCIS:CSI03:3,2013-10-03T20:00:00Z,29.4412,-92.0613,10.0,4.408,144.0,,'11111222,11111222,99999999' 
WAVCIS,ioos:station:WAVCIS:CSI03:3,2013-10-03T21:00:00Z,29.4412,-92.0613,10.0,4.073,145.0,,'11111222,11111222,99999999' 
WAVCIS,ioos:station:WAVCIS:CSI03:3,2013-10-03T22:00:00Z,29.4412,-92.0613,10.0,4.072,151.0,,'11111222,11111222,99999999' 
WAVCIS,ioos:station:WAVCIS:CSI03:3,2013-10-03T23:00:00Z,29.4412,-92.0613,10.0,4.087,155.0,,'11111222,11111222,99999999' 
WAVCIS,ioos:station:WAVCIS:CSI03:3,2013-10-04T00:00:00Z,29.4412,-92.0613,10.0,3.699,152.0,,'11111222,11111222,99999999' 
WAVCIS,ioos:station:WAVCIS:CSI03:3,2013-10-04T01:00:00Z,29.4412,-92.0613,10.0,4.8,139.0,,'11111222,11111222,99999999' 
WAVCIS,ioos:station:WAVCIS:CSI03:3,2013-10-04T02:00:00Z,29.4412,-92.0613,10.0,7.0,125.0,,'11111222,11111222,99999999' 
WAVCIS,ioos:station:WAVCIS:CSI03:3,2013-10-04T03:00:00Z,29.4412,-92.0613,10.0,7.92,122.0,,'11111222,11111222,99999999' 
WAVCIS,ioos:station:WAVCIS:CSI03:3,2013-10-04T04:00:00Z,29.4412,-92.0613,10.0,7.78,133.0,,'11111222,11111222,99999999' 
WAVCIS,ioos:station:WAVCIS:CSI03:3,2013-10-04T05:00:00Z,29.4412,-92.0613,10.0,7.19,146.0,,'11111222,11111222,99999999' 
WAVCIS,ioos:station:WAVCIS:CSI03:3,2013-10-04T06:00:00Z,29.4412,-92.0613,10.0,7.17,151.0,,'11111222,11111222,99999999' 
WAVCIS,ioos:station:WAVCIS:CSI03:3,2013-10-04T07:00:00Z,29.4412,-92.0613,10.0,6.559,147.0,,'11111222,11111222,99999999' 
WAVCIS,ioos:station:WAVCIS:CSI03:3,2013-10-04T08:00:00Z,29.4412,-92.0613,10.0,7.96,161.0,,'11111222,11111222,99999999' 
WAVCIS,ioos:station:WAVCIS:CSI03:3,2013-10-04T09:00:00Z,29.4412,-92.0613,10.0,6.589,173.0,,'11111222,11111222,99999999' 
WAVCIS,ioos:station:WAVCIS:CSI03:3,2013-10-04T10:00:00Z,29.4412,-92.0613,10.0,6.235,176.0,,'11111222,11111222,99999999' 
WAVCIS,ioos:station:WAVCIS:CSI03:3,2013-10-04T11:00:00Z,29.4412,-92.0613,10.0,5.286,178.0,,'11111222,11111222,99999999' 
WAVCIS,ioos:station:WAVCIS:CSI03:3,2013-10-04T12:00:00Z,29.4412,-92.0613,10.0,6.33,163.0,,'11111222,11111222,99999999' 
WAVCIS,ioos:station:WAVCIS:CSI03:3,2013-10-04T13:00:00Z,29.4412,-92.0613,10.0,6.254,162.0,,'11111222,11111222,99999999' 
WAVCIS,ioos:station:WAVCIS:CSI03:3,2013-10-04T14:00:00Z,29.4412,-92.0613,10.0,5.413,156.0,,'11111222,11111222,99999999' 
WAVCIS,ioos:station:WAVCIS:CSI03:3,2013-10-04T15:00:00Z,29.4412,-92.0613,10.0,5.317,140.0,,'11111222,11111222,99999999' 
WAVCIS,ioos:station:WAVCIS:CSI03:3,2013-10-04T16:00:00Z,29.4412,-92.0613,10.0,6.189,141.0,,'11111222,11111222,99999999' 
WAVCIS,ioos:station:WAVCIS:CSI03:3,2013-10-04T17:00:00Z,29.4412,-92.0613,10.0,8.48,112.0,,'11111222,11111222,99999999' 
WAVCIS,ioos:station:WAVCIS:CSI03:3,2013-10-04T18:00:00Z,29.4412,-92.0613,10.0,10.68,132.0,,'11111222,11111222,99999999' 
WAVCIS,ioos:station:WAVCIS:CSI03:3,2013-10-04T19:00:00Z,29.4412,-92.0613,10.0,4.806,118.0,,'11111222,11111222,99999999' 
WAVCIS,ioos:station:WAVCIS:CSI03:3,2013-10-04T20:00:00Z,29.4412,-92.0613,10.0,9.22,138.0,,'11111222,11111222,99999999' 
WAVCIS,ioos:station:WAVCIS:CSI03:3,2013-10-04T21:00:00Z,29.4412,-92.0613,10.0,4.946,93.0,,'11111222,11111222,99999999' 
WAVCIS,ioos:station:WAVCIS:CSI03:3,2013-10-04T22:00:00Z,29.4412,-92.0613,10.0,5.485,112.0,,'11111222,11111222,99999999' 
WAVCIS,ioos:station:WAVCIS:CSI03:3,2013-10-04T23:00:00Z,29.4412,-92.0613,10.0,9.52,125.0,,'11111222,11111222,99999999' 
WAVCIS,ioos:station:WAVCIS:CSI03:3,2013-10-05T00:00:00Z,29.4412,-92.0613,10.0,7.73,135.0,,'11111222,11111222,99999999' 
WAVCIS,ioos:station:WAVCIS:CSI03:3,2013-10-05T01:00:00Z,29.4412,-92.0613,10.0,8.16,127.0,,'11111222,11111222,99999999' 
WAVCIS,ioos:station:WAVCIS:CSI03:3,2013-10-05T02:00:00Z,29.4412,-92.0613,10.0,8.37,123.0,,'11111222,11111222,99999999' 
WAVCIS,ioos:station:WAVCIS:CSI03:3,2013-10-05T03:00:00Z,29.4412,-92.0613,10.0,8.17,117.0,,'11111222,11111222,99999999' 
WAVCIS,ioos:station:WAVCIS:CSI03:3,2013-10-05T04:00:00Z,29.4412,-92.0613,10.0,8.35,106.0,,'11111222,11111222,99999999' 
WAVCIS,ioos:station:WAVCIS:CSI03:3,2013-10-05T05:00:00Z,29.4412,-92.0613,10.0,9.04,145.0,,'11111222,11111222,99999999' 
WAVCIS,ioos:station:WAVCIS:CSI03:3,2013-10-05T06:00:00Z,29.4412,-92.0613,10.0,10.13,136.0,,'11111222,11111222,99999999' 
WAVCIS,ioos:station:WAVCIS:CSI03:3,2013-10-05T07:00:00Z,29.4412,-92.0613,10.0,9.85,135.0,,'11111222,11111222,99999999' 
WAVCIS,ioos:station:WAVCIS:CSI03:3,2013-10-05T08:00:00Z,29.4412,-92.0613,10.0,9.78,133.0,,'11111222,11111222,99999999' 
WAVCIS,ioos:station:WAVCIS:CSI03:3,2013-10-05T09:00:00Z,29.4412,-92.0613,10.0,9.86,134.0,,'11111222,11111222,99999999' 
WAVCIS,ioos:station:WAVCIS:CSI03:3,2013-10-05T10:00:00Z,29.4412,-92.0613,10.0,8.85,130.0,,'11111222,11111222,99999999' 
WAVCIS,ioos:station:WAVCIS:CSI03:3,2013-10-05T11:00:00Z,29.4412,-92.0613,10.0,7.48,136.0,,'11111222,11111222,99999999' 
WAVCIS,ioos:station:WAVCIS:CSI03:3,2013-10-05T12:00:00Z,29.4412,-92.0613,10.0,8.94,127.0,,'11111222,11111222,99999999' 
WAVCIS,ioos:station:WAVCIS:CSI03:3,2013-10-05T13:00:00Z,29.4412,-92.0613,10.0,7.31,119.0,,'11111222,11111222,99999999' 
WAVCIS,ioos:station:WAVCIS:CSI03:3,2013-10-05T14:00:00Z,29.4412,-92.0613,10.0,6.591,115.0,,'11111222,11111222,99999999' 
WAVCIS,ioos:station:WAVCIS:CSI03:3,2013-10-05T15:00:00Z,29.4412,-92.0613,10.0,7.15,100.0,,'11111222,11111222,99999999' 
WAVCIS,ioos:station:WAVCIS:CSI03:3,2013-10-05T16:00:00Z,29.4412,-92.0613,10.0,8.6,114.0,,'11111222,11111222,99999999' 
WAVCIS,ioos:station:WAVCIS:CSI03:3,2013-10-05T17:00:00Z,29.4412,-92.0613,10.0,7.79,96.0,,'11111222,11111222,99999999' 
WAVCIS,ioos:station:WAVCIS:CSI03:3,2013-10-05T18:00:00Z,29.4412,-92.0613,10.0,9.41,126.0,,'11111222,11111222,99999999' 
WAVCIS,ioos:station:WAVCIS:CSI03:3,2013-10-05T19:00:00Z,29.4412,-92.0613,10.0,8.81,120.0,,'11111222,11111222,99999999' 
WAVCIS,ioos:station:WAVCIS:CSI03:3,2013-10-05T20:00:00Z,29.4412,-92.0613,10.0,8.67,125.0,,'11111222,11111222,99999999' 
WAVCIS,ioos:station:WAVCIS:CSI03:3,2013-10-05T21:00:00Z,29.4412,-92.0613,10.0,6.692,138.0,,'11111222,11111222,99999999' 
WAVCIS,ioos:station:WAVCIS:CSI03:3,2013-10-05T22:00:00Z,29.4412,-92.0613,10.0,6.802,142.0,,'11111222,11111222,99999999' 
WAVCIS,ioos:station:WAVCIS:CSI03:3,2013-10-05T23:00:00Z,29.4412,-92.0613,10.0,8.46,132.0,,'11111222,11111222,99999999' 
WAVCIS,ioos:station:WAVCIS:CSI03:3,2013-10-06T00:00:00Z,29.4412,-92.0613,10.0,7.19,135.0,,'11111222,11111222,99999999' 
WAVCIS,ioos:station:WAVCIS:CSI03:3,2013-10-06T01:00:00Z,29.4412,-92.0613,10.0,5.955,129.0,,'11111222,11111222,99999999' 
WAVCIS,ioos:station:WAVCIS:CSI03:3,2013-10-06T02:00:00Z,29.4412,-92.0613,10.0,7.23,133.0,,'11111222,11111222,99999999' 
WAVCIS,ioos:station:WAVCIS:CSI03:3,2013-10-06T03:00:00Z,29.4412,-92.0613,10.0,7.28,125.0,,'11111222,11111222,99999999' 
WAVCIS,ioos:station:WAVCIS:CSI03:3,2013-10-06T04:00:00Z,29.4412,-92.0613,10.0,5.676,133.0,,'11111222,11111222,99999999' 
WAVCIS,ioos:station:WAVCIS:CSI03:3,2013-10-06T05:00:00Z,29.4412,-92.0613,10.0,3.899,136.0,,'11111222,11111222,99999999' 
WAVCIS,ioos:station:WAVCIS:CSI03:3,2013-10-06T06:00:00Z,29.4412,-92.0613,10.0,4.318,71.0,,'11111222,11111222,99999999' 
WAVCIS,ioos:station:WAVCIS:CSI03:3,2013-10-06T07:00:00Z,29.4412,-92.0613,10.0,4.928,57.0,,'11111222,11111222,99999999' 
WAVCIS,ioos:station:WAVCIS:CSI03:3,2013-10-06T08:00:00Z,29.4412,-92.0613,10.0,3.928,67.0,,'11111222,11111222,99999999' 
WAVCIS,ioos:station:WAVCIS:CSI03:3,2013-10-06T09:00:00Z,29.4412,-92.0613,10.0,3.521,53.0,,'11111222,11111222,99999999' 
WAVCIS,ioos:station:WAVCIS:CSI03:3,2013-10-06T10:00:00Z,29.4412,-92.0613,10.0,2.843,38.0,,'11111222,11111222,99999999' 
WAVCIS,ioos:station:WAVCIS:CSI03:3,2013-10-06T11:00:00Z,29.4412,-92.0613,10.0,2.872,7.0,,'11111222,11111222,99999999' 
WAVCIS,ioos:station:WAVCIS:CSI03:3,2013-10-06T12:00:00Z,29.4412,-92.0613,10.0,3.746,359.0,,'11111222,11111222,99999999' 
WAVCIS,ioos:station:WAVCIS:CSI03:3,2013-10-06T13:00:00Z,29.4412,-92.0613,10.0,5.99,341.0,,'11111222,11111222,99999999' 
WAVCIS,ioos:station:WAVCIS:CSI03:3,2013-10-06T14:00:00Z,29.4412,-92.0613,10.0,9.13,1.0,,'11111222,11111222,99999999' 
WAVCIS,ioos:station:WAVCIS:CSI03:3,2013-10-06T15:00:00Z,29.4412,-92.0613,10.0,8.65,352.0,,'11111222,11111222,99999999' 
WAVCIS,ioos:station:WAVCIS:CSI03:3,2013-10-06T16:00:00Z,29.4412,-92.0613,10.0,7.71,0.0,,'11111222,11111222,99999999' 
WAVCIS,ioos:station:WAVCIS:CSI03:3,2013-10-06T17:00:00Z,29.4412,-92.0613,10.0,6.561,5.0,,'11111222,11111222,99999999' 
WAVCIS,ioos:station:WAVCIS:CSI03:3,2013-10-06T18:00:00Z,29.4412,-92.0613,10.0,7.01,351.0,,'11111222,11111222,99999999' 
WAVCIS,ioos:station:WAVCIS:CSI03:3,2013-10-06T19:00:00Z,29.4412,-92.0613,10.0,7.91,350.0,,'11111222,11111222,99999999' 
WAVCIS,ioos:station:WAVCIS:CSI03:3,2013-10-06T20:00:00Z,29.4412,-92.0613,10.0,7.13,353.0,,'11111222,11111222,99999999' 
WAVCIS,ioos:station:WAVCIS:CSI03:3,2013-10-06T21:00:00Z,29.4412,-92.0613,10.0,9.04,349.0,,'11111222,11111222,99999999' 
WAVCIS,ioos:station:WAVCIS:CSI03:3,2013-10-06T22:00:00Z,29.4412,-92.0613,10.0,6.863,3.0,,'11111222,11111222,99999999' 
WAVCIS,ioos:station:WAVCIS:CSI03:3,2013-10-06T23:00:00Z,29.4412,-92.0613,10.0,9.81,350.0,,'11111222,11111222,99999999' 
WAVCIS,ioos:station:WAVCIS:CSI03:3,2013-10-07T00:00:00Z,29.4412,-92.0613,10.0,9.46,354.0,,'11111222,11111222,99999999' 
WAVCIS,ioos:station:WAVCIS:CSI03:3,2013-10-07T01:00:00Z,29.4412,-92.0613,10.0,10.34,344.0,,'11111222,11111222,99999999' 
WAVCIS,ioos:station:WAVCIS:CSI03:3,2013-10-07T02:00:00Z,29.4412,-92.0613,10.0,10.0,351.0,,'11111222,11111222,99999999' 
WAVCIS,ioos:station:WAVCIS:CSI03:3,2013-10-07T03:00:00Z,29.4412,-92.0613,10.0,7.24,359.0,,'11111222,11111222,99999999' 
WAVCIS,ioos:station:WAVCIS:CSI03:3,2013-10-07T04:00:00Z,29.4412,-92.0613,10.0,6.963,4.0,,'11111222,11111222,99999999' 
WAVCIS,ioos:station:WAVCIS:CSI03:3,2013-10-07T05:00:00Z,29.4412,-92.0613,10.0,6.122,7.0,,'11111222,11111222,99999999' 
WAVCIS,ioos:station:WAVCIS:CSI03:3,2013-10-07T06:00:00Z,29.4412,-92.0613,10.0,5.961,356.0,,'11111222,11111222,99999999' 
WAVCIS,ioos:station:WAVCIS:CSI03:3,2013-10-07T07:00:00Z,29.4412,-92.0613,10.0,7.19,351.0,,'11111222,11111222,99999999' 
WAVCIS,ioos:station:WAVCIS:CSI03:3,2013-10-07T08:00:00Z,29.4412,-92.0613,10.0,6.654,2.0,,'11111222,11111222,99999999' 
WAVCIS,ioos:station:WAVCIS:CSI03:3,2013-10-07T09:00:00Z,29.4412,-92.0613,10.0,7.93,5.0,,'11111222,11111222,99999999' 
WAVCIS,ioos:station:WAVCIS:CSI03:3,2013-10-07T10:00:00Z,29.4412,-92.0613,10.0,8.57,11.0,,'11111222,11111222,99999999' 
WAVCIS,ioos:station:WAVCIS:CSI03:3,2013-10-07T11:00:00Z,29.4412,-92.0613,10.0,7.37,20.0,,'11111222,11111222,99999999' 
WAVCIS,ioos:station:WAVCIS:CSI03:3,2013-10-07T12:00:00Z,29.4412,-92.0613,10.0,7.26,32.0,,'11111222,11111222,99999999' 
WAVCIS,ioos:station:WAVCIS:CSI03:3,2013-10-07T13:00:00Z,29.4412,-92.0613,10.0,7.32,37.0,,'11111222,11111222,99999999' 
WAVCIS,ioos:station:WAVCIS:CSI03:3,2013-10-07T14:00:00Z,29.4412,-92.0613,10.0,6.406,36.0,,'11111222,11111222,99999999' 
WAVCIS,ioos:station:WAVCIS:CSI03:3,2013-10-07T15:00:00Z,29.4412,-92.0613,10.0,5.37,37.0,,'11111222,11111222,99999999' 
WAVCIS,ioos:station:WAVCIS:CSI03:3,2013-10-07T16:00:00Z,29.4412,-92.0613,10.0,4.79,38.0,,'11111222,11111222,99999999' 
WAVCIS,ioos:station:WAVCIS:CSI03:3,2013-10-07T17:00:00Z,29.4412,-92.0613,10.0,3.867,40.0,,'11111222,11111222,99999999' 
WAVCIS,ioos:station:WAVCIS:CSI03:3,2013-10-07T18:00:00Z,29.4412,-92.0613,10.0,5.548,12.0,,'11111222,11111222,99999999' 
WAVCIS,ioos:station:WAVCIS:CSI03:3,2013-10-07T19:00:00Z,29.4412,-92.0613,10.0,4.498,15.0,,'11111222,11111222,99999999' 
WAVCIS,ioos:station:WAVCIS:CSI03:3,2013-10-07T20:00:00Z,29.4412,-92.0613,10.0,4.473,9.0,,'11111222,11111222,99999999' 
WAVCIS,ioos:station:WAVCIS:CSI03:3,2013-10-07T21:00:00Z,29.4412,-92.0613,10.0,3.683,6.0,,'11111222,11111222,99999999' 
WAVCIS,ioos:station:WAVCIS:CSI03:3,2013-10-07T22:00:00Z,29.4412,-92.0613,10.0,5.066,3.0,,'11111222,11111222,99999999' 
WAVCIS,ioos:station:WAVCIS:CSI03:3,2013-10-07T23:00:00Z,29.4412,-92.0613,10.0,5.83,355.0,,'11111222,11111222,99999999' 
WAVCIS,ioos:station:WAVCIS:CSI03:3,2013-10-08T00:00:00Z,29.4412,-92.0613,10.0,6.739,346.0,,'11111222,11111222,99999999' 
WAVCIS,ioos:station:WAVCIS:CSI03:3,2013-10-08T01:00:00Z,29.4412,-92.0613,10.0,6.112,353.0,,'11111222,11111222,99999999' 
WAVCIS,ioos:station:WAVCIS:CSI03:3,2013-10-08T02:00:00Z,29.4412,-92.0613,10.0,5.093,1.0,,'11111222,11111222,99999999' 
WAVCIS,ioos:station:WAVCIS:CSI03:3,2013-10-08T03:00:00Z,29.4412,-92.0613,10.0,5.096,5.0,,'11111222,11111222,99999999' 
WAVCIS,ioos:station:WAVCIS:CSI03:3,2013-10-08T04:00:00Z,29.4412,-92.0613,10.0,5.901,14.0,,'11111222,11111222,99999999' 
WAVCIS,ioos:station:WAVCIS:CSI03:3,2013-10-08T05:00:00Z,29.4412,-92.0613,10.0,5.141,37.0,,'11111222,11111222,99999999' 
WAVCIS,ioos:station:WAVCIS:CSI03:3,2013-10-08T06:00:00Z,29.4412,-92.0613,10.0,7.69,50.0,,'11111222,11111222,99999999' 
WAVCIS,ioos:station:WAVCIS:CSI03:3,2013-10-08T07:00:00Z,29.4412,-92.0613,10.0,7.73,52.0,,'11111222,11111222,99999999' 
WAVCIS,ioos:station:WAVCIS:CSI03:3,2013-10-08T08:00:00Z,29.4412,-92.0613,10.0,7.5,56.0,,'11111222,11111222,99999999' 
WAVCIS,ioos:station:WAVCIS:CSI03:3,2013-10-08T09:00:00Z,29.4412,-92.0613,10.0,7.58,53.0,,'11111222,11111222,99999999' 
WAVCIS,ioos:station:WAVCIS:CSI03:3,2013-10-08T10:00:00Z,29.4412,-92.0613,10.0,6.925,56.0,,'11111222,11111222,99999999' 
WAVCIS,ioos:station:WAVCIS:CSI03:3,2013-10-08T11:00:00Z,29.4412,-92.0613,10.0,6.612,56.0,,'11111222,11111222,99999999' 
WAVCIS,ioos:station:WAVCIS:CSI03:3,2013-10-08T12:00:00Z,29.4412,-92.0613,10.0,7.01,56.0,,'11111222,11111222,99999999' 
WAVCIS,ioos:station:WAVCIS:CSI03:3,2013-10-08T13:00:00Z,29.4412,-92.0613,10.0,6.973,55.0,,'11111222,11111222,99999999' 
WAVCIS,ioos:station:WAVCIS:CSI03:3,2013-10-08T14:00:00Z,29.4412,-92.0613,10.0,6.101,66.0,,'11111222,11111222,99999999' 
WAVCIS,ioos:station:WAVCIS:CSI03:3,2013-10-08T15:00:00Z,29.4412,-92.0613,10.0,5.305,71.0,,'11111222,11111222,99999999' 
WAVCIS,ioos:station:WAVCIS:CSI03:3,2013-10-08T16:00:00Z,29.4412,-92.0613,10.0,3.198,69.0,,'11111222,11111222,99999999' 
WAVCIS,ioos:station:WAVCIS:CSI03:3,2013-10-08T17:00:00Z,29.4412,-92.0613,10.0,1.325,97.0,,'11111222,11111222,99999999' 
WAVCIS,ioos:station:WAVCIS:CSI03:3,2013-10-08T18:00:00Z,29.4412,-92.0613,10.0,0.413,15.0,,'11111222,11111222,99999999' 
WAVCIS,ioos:station:WAVCIS:CSI03:3,2013-10-08T19:00:00Z,29.4412,-92.0613,10.0,2.052,336.0,,'11111222,11111222,99999999' 
WAVCIS,ioos:station:WAVCIS:CSI03:3,2013-10-08T20:00:00Z,29.4412,-92.0613,10.0,0.376,142.0,,'11111222,11111222,99999999' 
WAVCIS,ioos:station:WAVCIS:CSI03:3,2013-10-08T21:00:00Z,29.4412,-92.0613,10.0,1.083,259.0,,'11111222,11111222,99999999' 
WAVCIS,ioos:station:WAVCIS:CSI03:3,2013-10-08T22:00:00Z,29.4412,-92.0613,10.0,2.982,254.0,,'11111222,11111222,99999999' 
WAVCIS,ioos:station:WAVCIS:CSI03:3,2013-10-08T23:00:00Z,29.4412,-92.0613,10.0,4.418,268.0,,'11111222,11111222,99999999' 
WAVCIS,ioos:station:WAVCIS:CSI03:3,2013-10-09T00:00:00Z,29.4412,-92.0613,10.0,4.201,279.0,,'11111222,11111222,99999999' 
WAVCIS,ioos:station:WAVCIS:CSI03:3,2013-10-09T01:00:00Z,29.4412,-92.0613,10.0,2.485,296.0,,'11111222,11111222,99999999' 
WAVCIS,ioos:station:WAVCIS:CSI03:3,2013-10-09T02:00:00Z,29.4412,-92.0613,10.0,4.399,328.0,,'11111222,11111222,99999999' 
WAVCIS,ioos:station:WAVCIS:CSI03:3,2013-10-09T03:00:00Z,29.4412,-92.0613,10.0,4.177,348.0,,'11111222,11111222,99999999' 
WAVCIS,ioos:station:WAVCIS:CSI03:3,2013-10-09T04:00:00Z,29.4412,-92.0613,10.0,3.219,44.0,,'11111222,11111222,99999999' 
WAVCIS,ioos:station:WAVCIS:CSI03:3,2013-10-09T05:00:00Z,29.4412,-92.0613,10.0,4.206,64.0,,'11111222,11111222,99999999' 